This demonstration page uses our WeatherBlox Daily Observations layout. Learn more.

39.92423, -83.80882

Hourly Observations for May 2, 2015

Temp ( °F °C ) Dew Point ( °F °C ) Humidity (%) Winds ( mph kmh ) Pressure ( in mb ) Visibility ( mi km ) Precip ( " mm )
12:56 am 00:56 Clear 48 8.8 42 5.5 80 80 Calm 30.09 1019 7 11.26538 0 0
1:56 am 01:56 Clear 48 8.8 42 5.5 80 80 Calm 30.09 1019 7 11.26538 0 0
2:56 am 02:56 Partly Cloudy 48 8.8 42 5.5 80 80 NW 3 6 30.09 1019 7 11.26538 0 0
3:56 am 03:56 Clear 47 8.3 41 5 80 80 Calm 30.09 1019 7 11.26538 0 0
4:56 am 04:56 Clear 46 7.7 43 6.1 90 90 Calm 30.09 1019 7 11.26538 0 0
5:56 am 05:56 Mostly Clear 44 6.6 42 5.5 93 93 ENE 3 6 30.11 1020 7 11.26538 0 0
6:56 am 06:56 Sunny with Mist and Fog 44 6.6 41 5 90 90 Calm 30.11 1020 6 9.65604 0 0
7:56 am 07:56 Hazy 51 10.5 45 7.2 80 80 Calm 30.13 1020 5 8.0467 0 0
8:56 am 08:56 Hazy 54 12.2 48 8.8 80 80 E 3 6 30.14 1021 5 8.0467 0 0
9:56 am 09:56 Hazy 59 15 46 7.7 62 62 Calm 30.14 1021 6 9.65604 0 0
10:56 am 10:56 Hazy 65 18.3 47 8.3 52 52 Calm 30.14 1021 6 9.65604 0 0
11:56 am 11:56 Hazy 68 20 43 6.1 40 40 Calm 30.13 1020 6 9.65604 0 0
12:56 pm 12:56 Hazy 72 22.2 40 4.4 31 31 VRB 3 6 30.12 1020 6 9.65604 0 0
1:56 pm 13:56 Hazy 73 22.7 40 4.4 30 30 W 7 11 30.1 1019 6 9.65604 0 0
2:56 pm 14:56 Hazy 74 23.3 43 6.1 33 33 VRB 6 9 30.08 1019 6 9.65604 0 0
3:56 pm 15:56 Hazy 74 23.3 42 5.5 32 32 W 7 11 30.06 1018 6 9.65604 0 0
4:56 pm 16:56 Hazy 74 23.3 42 5.5 32 32 VRB 3 6 30.04 1017 6 9.65604 0 0
5:56 pm 17:56 Hazy 74 23.3 41 5 31 31 VRB 5 7 30.04 1017 6 9.65604 0 0
6:56 pm 18:56 Hazy 73 22.7 40 4.4 30 30 WSW 9 15 30.04 1017 6 9.65604 0 0
7:56 pm 19:56 Hazy 70 21.1 44 6.6 39 39 WSW 8 13 30.04 1017 6 9.65604 0 0
8:56 pm 20:56 Mostly Clear 64 17.7 44 6.6 48 48 W 3 6 30.06 1018 8 12.87472 0 0
9:56 pm 21:56 Clear 62 16.6 43 6.1 50 50 SW 3 6 30.07 1018 7 11.26538 0 0
10:56 pm 22:56 Clear 57 13.8 44 6.6 62 62 Calm 30.08 1019 7 11.26538 0 0
11:56 pm 23:56 Clear 54 12.2 44 6.6 69 69 SSE 3 6 30.08 1019 7 11.26538 0 0

Powered by AerisWeather